owner,sensor,date,latitude,longitude,air_temperature,qcFlag 
NDBC,ioos:station:wmo:42001:1,2017-12-01T00:40:00Z,25.8880,-89.6580,25.9,1111122 
NDBC,ioos:station:wmo:42001:1,2017-12-01T01:40:00Z,25.8880,-89.6580,25.9,1111122 
NDBC,ioos:station:wmo:42001:1,2017-12-01T02:40:00Z,25.8880,-89.6580,25.9,1111122 
NDBC,ioos:station:wmo:42001:1,2017-12-01T03:40:00Z,25.8880,-89.6580,25.9,1111122 
NDBC,ioos:station:wmo:42001:1,2017-12-01T04:40:00Z,25.8880,-89.6580,25.8,1111122 
NDBC,ioos:station:wmo:42001:1,2017-12-01T05:40:00Z,25.8880,-89.6580,25.7,1111122 
NDBC,ioos:station:wmo:42001:1,2017-12-01T06:40:00Z,25.8880,-89.6580,25.5,1111122 
NDBC,ioos:station:wmo:42001:1,2017-12-01T07:40:00Z,25.8880,-89.6580,25.3,1111122 
NDBC,ioos:station:wmo:42001:1,2017-12-01T08:40:00Z,25.8880,-89.6580,25.2,1111122 
NDBC,ioos:station:wmo:42001:1,2017-12-01T09:50:00Z,25.8880,-89.6580,25.1,1111122 
NDBC,ioos:station:wmo:42001:1,2017-12-01T10:40:00Z,25.8880,-89.6580,25.1,1111122 
NDBC,ioos:station:wmo:42001:1,2017-12-01T11:40:00Z,25.8880,-89.6580,25.0,1111122 
NDBC,ioos:station:wmo:42001:1,2017-12-01T12:40:00Z,25.8880,-89.6580,25.0,1111122 
NDBC,ioos:station:wmo:42001:1,2017-12-01T13:40:00Z,25.8880,-89.6580,25.2,1111122 
NDBC,ioos:station:wmo:42001:1,2017-12-01T14:40:00Z,25.8880,-89.6580,25.2,1111122 
NDBC,ioos:station:wmo:42001:1,2017-12-01T15:40:00Z,25.8880,-89.6580,25.3,1111122 
NDBC,ioos:station:wmo:42001:1,2017-12-01T16:40:00Z,25.8880,-89.6580,25.1,1111122 
NDBC,ioos:station:wmo:42001:1,2017-12-01T17:40:00Z,25.8880,-89.6580,25.2,1111122 
NDBC,ioos:station:wmo:42001:1,2017-12-01T18:40:00Z,25.8880,-89.6580,25.2,1111122 
NDBC,ioos:station:wmo:42001:1,2017-12-01T19:40:00Z,25.8880,-89.6580,25.2,1111122 
NDBC,ioos:station:wmo:42001:1,2017-12-01T20:40:00Z,25.8880,-89.6580,25.3,1111122 
NDBC,ioos:station:wmo:42001:1,2017-12-01T21:40:00Z,25.8880,-89.6580,25.5,1111122 
NDBC,ioos:station:wmo:42001:1,2017-12-01T22:40:00Z,25.8880,-89.6580,25.4,1111122 
NDBC,ioos:station:wmo:42001:1,2017-12-01T23:40:00Z,25.8880,-89.6580,25.3,1111122 
NDBC,ioos:station:wmo:42001:1,2017-12-02T00:40:00Z,25.8880,-89.6580,25.4,1111122 
NDBC,ioos:station:wmo:42001:1,2017-12-02T01:40:00Z,25.8880,-89.6580,25.4,1111122 
NDBC,ioos:station:wmo:42001:1,2017-12-02T02:40:00Z,25.8880,-89.6580,25.3,1111122 
NDBC,ioos:station:wmo:42001:1,2017-12-02T03:40:00Z,25.8880,-89.6580,25.4,1111122 
NDBC,ioos:station:wmo:42001:1,2017-12-02T04:40:00Z,25.8880,-89.6580,25.5,1111122 
NDBC,ioos:station:wmo:42001:1,2017-12-02T05:40:00Z,25.8880,-89.6580,25.3,1111122 
NDBC,ioos:station:wmo:42001:1,2017-12-02T06:40:00Z,25.8880,-89.6580,25.2,1111122 
NDBC,ioos:station:wmo:42001:1,2017-12-02T07:40:00Z,25.8880,-89.6580,25.2,1111122 
NDBC,ioos:station:wmo:42001:1,2017-12-02T08:40:00Z,25.8880,-89.6580,25.1,1111122 
NDBC,ioos:station:wmo:42001:1,2017-12-02T09:40:00Z,25.8880,-89.6580,25.0,1111122 
NDBC,ioos:station:wmo:42001:1,2017-12-02T10:40:00Z,25.8880,-89.6580,25.0,1111122 
NDBC,ioos:station:wmo:42001:1,2017-12-02T11:40:00Z,25.8880,-89.6580,25.0,1111122 
NDBC,ioos:station:wmo:42001:1,2017-12-02T12:40:00Z,25.8880,-89.6580,25.1,1111122 
NDBC,ioos:station:wmo:42001:1,2017-12-02T13:40:00Z,25.8880,-89.6580,25.5,1111122 
NDBC,ioos:station:wmo:42001:1,2017-12-02T14:40:00Z,25.8880,-89.6580,25.5,1111122 
NDBC,ioos:station:wmo:42001:1,2017-12-02T15:40:00Z,25.8880,-89.6580,25.6,1111122 
NDBC,ioos:station:wmo:42001:1,2017-12-02T16:40:00Z,25.8880,-89.6580,25.7,1111122 
NDBC,ioos:station:wmo:42001:1,2017-12-02T17:40:00Z,25.8880,-89.6580,25.6,1111122 
NDBC,ioos:station:wmo:42001:1,2017-12-02T18:40:00Z,25.8880,-89.6580,25.6,1111122 
NDBC,ioos:station:wmo:42001:1,2017-12-02T19:40:00Z,25.8880,-89.6580,25.5,1111122 
NDBC,ioos:station:wmo:42001:1,2017-12-02T20:40:00Z,25.8880,-89.6580,25.5,1111122 
NDBC,ioos:station:wmo:42001:1,2017-12-02T21:40:00Z,25.8880,-89.6580,25.7,1111122 
NDBC,ioos:station:wmo:42001:1,2017-12-02T22:40:00Z,25.8880,-89.6580,25.5,1111122 
NDBC,ioos:station:wmo:42001:1,2017-12-02T23:40:00Z,25.8880,-89.6580,25.3,1111122 
NDBC,ioos:station:wmo:42001:1,2017-12-03T00:40:00Z,25.8880,-89.6580,25.4,1111122 
NDBC,ioos:station:wmo:42001:1,2017-12-03T01:40:00Z,25.8880,-89.6580,25.4,1111122 
NDBC,ioos:station:wmo:42001:1,2017-12-03T02:40:00Z,25.8880,-89.6580,25.3,1111122 
NDBC,ioos:station:wmo:42001:1,2017-12-03T03:40:00Z,25.8880,-89.6580,25.2,1111122 
NDBC,ioos:station:wmo:42001:1,2017-12-03T04:40:00Z,25.8880,-89.6580,25.2,1111122 
NDBC,ioos:station:wmo:42001:1,2017-12-03T05:40:00Z,25.8880,-89.6580,25.1,1111122 
NDBC,ioos:station:wmo:42001:1,2017-12-03T06:40:00Z,25.8880,-89.6580,25.0,1111122 
NDBC,ioos:station:wmo:42001:1,2017-12-03T07:40:00Z,25.8880,-89.6580,24.9,1111122 
NDBC,ioos:station:wmo:42001:1,2017-12-03T08:40:00Z,25.8880,-89.6580,24.9,1111122 
NDBC,ioos:station:wmo:42001:1,2017-12-03T09:40:00Z,25.8880,-89.6580,24.9,1111122 
NDBC,ioos:station:wmo:42001:1,2017-12-03T10:40:00Z,25.8880,-89.6580,24.8,1111122 
NDBC,ioos:station:wmo:42001:1,2017-12-03T11:40:00Z,25.8880,-89.6580,24.8,1111122 
NDBC,ioos:station:wmo:42001:1,2017-12-03T12:40:00Z,25.8880,-89.6580,24.9,1111122 
NDBC,ioos:station:wmo:42001:1,2017-12-03T13:40:00Z,25.8880,-89.6580,25.0,1111122 
NDBC,ioos:station:wmo:42001:1,2017-12-03T14:40:00Z,25.8880,-89.6580,25.3,1111122 
NDBC,ioos:station:wmo:42001:1,2017-12-03T15:40:00Z,25.8880,-89.6580,25.4,1111122 
NDBC,ioos:station:wmo:42001:1,2017-12-03T16:40:00Z,25.8880,-89.6580,25.5,1111122 
NDBC,ioos:station:wmo:42001:1,2017-12-03T17:50:00Z,25.8880,-89.6580,25.3,1111122 
NDBC,ioos:station:wmo:42001:1,2017-12-03T18:40:00Z,25.8880,-89.6580,25.3,1111122 
NDBC,ioos:station:wmo:42001:1,2017-12-03T19:40:00Z,25.8880,-89.6580,25.3,1111122 
NDBC,ioos:station:wmo:42001:1,2017-12-03T20:40:00Z,25.8880,-89.6580,25.3,1111122 
NDBC,ioos:station:wmo:42001:1,2017-12-03T21:40:00Z,25.8880,-89.6580,25.4,1111122 
NDBC,ioos:station:wmo:42001:1,2017-12-03T22:40:00Z,25.8880,-89.6580,25.2,1111122 
NDBC,ioos:station:wmo:42001:1,2017-12-03T23:40:00Z,25.8880,-89.6580,25.2,1111122 
NDBC,ioos:station:wmo:42001:1,2017-12-03T23:50:00Z,25.8880,-89.6580,25.2,1111122 
NDBC,ioos:station:wmo:42001:1,2017-12-04T02:40:00Z,25.8880,-89.6580,25.3,1111122 
NDBC,ioos:station:wmo:42001:1,2017-12-04T03:40:00Z,25.8880,-89.6580,25.4,1111122 
NDBC,ioos:station:wmo:42001:1,2017-12-04T04:40:00Z,25.8880,-89.6580,25.3,1111122 
NDBC,ioos:station:wmo:42001:1,2017-12-04T05:40:00Z,25.8880,-89.6580,25.3,1111122 
NDBC,ioos:station:wmo:42001:1,2017-12-04T06:40:00Z,25.8880,-89.6580,25.4,1111122 
NDBC,ioos:station:wmo:42001:1,2017-12-04T07:40:00Z,25.8880,-89.6580,25.5,1111122 
NDBC,ioos:station:wmo:42001:1,2017-12-04T08:40:00Z,25.8880,-89.6580,25.5,1111122 
NDBC,ioos:station:wmo:42001:1,2017-12-04T09:40:00Z,25.8880,-89.6580,25.6,1111122 
NDBC,ioos:station:wmo:42001:1,2017-12-04T10:40:00Z,25.8880,-89.6580,25.6,1111122 
NDBC,ioos:station:wmo:42001:1,2017-12-04T11:40:00Z,25.8880,-89.6580,25.7,1111122 
NDBC,ioos:station:wmo:42001:1,2017-12-04T12:40:00Z,25.8880,-89.6580,25.7,1111122 
NDBC,ioos:station:wmo:42001:1,2017-12-04T13:40:00Z,25.8880,-89.6580,25.7,1111122 
NDBC,ioos:station:wmo:42001:1,2017-12-04T14:40:00Z,25.8880,-89.6580,26.0,1111122 
NDBC,ioos:station:wmo:42001:1,2017-12-04T15:40:00Z,25.8880,-89.6580,26.1,1111122 
NDBC,ioos:station:wmo:42001:1,2017-12-04T16:40:00Z,25.8880,-89.6580,26.1,1111122 
NDBC,ioos:station:wmo:42001:1,2017-12-04T17:40:00Z,25.8880,-89.6580,26.1,1111122 
NDBC,ioos:station:wmo:42001:1,2017-12-04T18:40:00Z,25.8880,-89.6580,26.2,1111122 
NDBC,ioos:station:wmo:42001:1,2017-12-04T19:40:00Z,25.8880,-89.6580,26.1,1111122 
NDBC,ioos:station:wmo:42001:1,2017-12-04T20:40:00Z,25.8880,-89.6580,26.1,1111122 
NDBC,ioos:station:wmo:42001:1,2017-12-04T21:40:00Z,25.8880,-89.6580,26.2,1111122 
NDBC,ioos:station:wmo:42001:1,2017-12-04T22:40:00Z,25.8880,-89.6580,26.0,1111122 
NDBC,ioos:station:wmo:42001:1,2017-12-04T23:40:00Z,25.8880,-89.6580,26.1,1111122 
NDBC,ioos:station:wmo:42001:1,2017-12-05T00:40:00Z,25.8880,-89.6580,26.0,1111122 
NDBC,ioos:station:wmo:42001:1,2017-12-05T01:40:00Z,25.8880,-89.6580,26.0,1111122 
NDBC,ioos:station:wmo:42001:1,2017-12-05T02:30:00Z,25.8880,-89.6580,25.9,1111122 
NDBC,ioos:station:wmo:42001:1,2017-12-05T03:40:00Z,25.8880,-89.6580,26.0,1111122 
NDBC,ioos:station:wmo:42001:1,2017-12-05T04:40:00Z,25.8880,-89.6580,26.0,1111122 
NDBC,ioos:station:wmo:42001:1,2017-12-05T05:40:00Z,25.8880,-89.6580,25.6,1111122 
NDBC,ioos:station:wmo:42001:1,2017-12-05T06:40:00Z,25.8880,-89.6580,26.1,1111122 
NDBC,ioos:station:wmo:42001:1,2017-12-05T07:40:00Z,25.8880,-89.6580,26.0,1111122 
NDBC,ioos:station:wmo:42001:1,2017-12-05T08:40:00Z,25.8880,-89.6580,25.7,1111122 
NDBC,ioos:station:wmo:42001:1,2017-12-05T09:40:00Z,25.8880,-89.6580,25.7,1111122 
NDBC,ioos:station:wmo:42001:1,2017-12-05T10:40:00Z,25.8880,-89.6580,25.7,1111122 
NDBC,ioos:station:wmo:42001:1,2017-12-05T11:40:00Z,25.8880,-89.6580,25.6,1111122 
NDBC,ioos:station:wmo:42001:1,2017-12-05T12:40:00Z,25.8880,-89.6580,26.2,1111122 
NDBC,ioos:station:wmo:42001:1,2017-12-05T13:40:00Z,25.8880,-89.6580,26.4,1111122 
NDBC,ioos:station:wmo:42001:1,2017-12-05T14:40:00Z,25.8880,-89.6580,26.5,1111122 
NDBC,ioos:station:wmo:42001:1,2017-12-05T15:40:00Z,25.8880,-89.6580,26.7,1111122 
NDBC,ioos:station:wmo:42001:1,2017-12-05T16:40:00Z,25.8880,-89.6580,26.7,1111122 
NDBC,ioos:station:wmo:42001:1,2017-12-05T17:40:00Z,25.8880,-89.6580,26.6,1111122 
NDBC,ioos:station:wmo:42001:1,2017-12-05T18:40:00Z,25.8880,-89.6580,26.6,1111122 
NDBC,ioos:station:wmo:42001:1,2017-12-05T19:40:00Z,25.8880,-89.6580,26.6,1111122 
NDBC,ioos:station:wmo:42001:1,2017-12-05T20:40:00Z,25.8880,-89.6580,26.7,1111122 
NDBC,ioos:station:wmo:42001:1,2017-12-05T21:40:00Z,25.8880,-89.6580,26.5,1111122 
NDBC,ioos:station:wmo:42001:1,2017-12-05T22:40:00Z,25.8880,-89.6580,26.4,1111122 
NDBC,ioos:station:wmo:42001:1,2017-12-05T23:40:00Z,25.8880,-89.6580,26.3,1111122 
NDBC,ioos:station:wmo:42001:1,2017-12-06T00:40:00Z,25.8880,-89.6580,26.4,1111122 
NDBC,ioos:station:wmo:42001:1,2017-12-06T01:40:00Z,25.8880,-89.6580,25.5,1111122 
NDBC,ioos:station:wmo:42001:1,2017-12-06T02:40:00Z,25.8880,-89.6580,25.4,1111122 
NDBC,ioos:station:wmo:42001:1,2017-12-06T03:40:00Z,25.8880,-89.6580,25.6,1111122 
NDBC,ioos:station:wmo:42001:1,2017-12-06T04:40:00Z,25.8880,-89.6580,25.6,1111122 
NDBC,ioos:station:wmo:42001:1,2017-12-06T05:40:00Z,25.8880,-89.6580,25.6,1111122 
NDBC,ioos:station:wmo:42001:1,2017-12-06T06:50:00Z,25.8880,-89.6580,25.6,1111122 
NDBC,ioos:station:wmo:42001:1,2017-12-06T07:50:00Z,25.8880,-89.6580,25.4,1111122 
NDBC,ioos:station:wmo:42001:1,2017-12-06T08:40:00Z,25.8880,-89.6580,25.3,1111122 
NDBC,ioos:station:wmo:42001:1,2017-12-06T09:40:00Z,25.8880,-89.6580,25.4,1111122 
NDBC,ioos:station:wmo:42001:1,2017-12-06T10:40:00Z,25.8880,-89.6580,25.3,1111122 
NDBC,ioos:station:wmo:42001:1,2017-12-06T11:40:00Z,25.8880,-89.6580,25.3,1111122 
NDBC,ioos:station:wmo:42001:1,2017-12-06T12:40:00Z,25.8880,-89.6580,25.5,1111122 
NDBC,ioos:station:wmo:42001:1,2017-12-06T13:40:00Z,25.8880,-89.6580,25.7,1111122 
NDBC,ioos:station:wmo:42001:1,2017-12-06T14:40:00Z,25.8880,-89.6580,26.0,1111122 
NDBC,ioos:station:wmo:42001:1,2017-12-06T15:40:00Z,25.8880,-89.6580,26.1,1111122 
NDBC,ioos:station:wmo:42001:1,2017-12-06T16:40:00Z,25.8880,-89.6580,26.1,1111122 
NDBC,ioos:station:wmo:42001:1,2017-12-06T17:40:00Z,25.8880,-89.6580,26.2,1111122 
NDBC,ioos:station:wmo:42001:1,2017-12-06T18:40:00Z,25.8880,-89.6580,26.1,1111122 
NDBC,ioos:station:wmo:42001:1,2017-12-06T19:40:00Z,25.8880,-89.6580,26.2,1111122 
NDBC,ioos:station:wmo:42001:1,2017-12-06T20:40:00Z,25.8880,-89.6580,26.1,1111122 
NDBC,ioos:station:wmo:42001:1,2017-12-06T21:40:00Z,25.8880,-89.6580,25.9,1111122 
NDBC,ioos:station:wmo:42001:1,2017-12-06T22:40:00Z,25.8880,-89.6580,25.8,1111122 
NDBC,ioos:station:wmo:42001:1,2017-12-06T23:40:00Z,25.8880,-89.6580,25.6,1111122 
NDBC,ioos:station:wmo:42001:1,2017-12-07T00:40:00Z,25.8880,-89.6580,25.6,1111122 
NDBC,ioos:station:wmo:42001:1,2017-12-07T01:40:00Z,25.8880,-89.6580,25.5,1111122 
NDBC,ioos:station:wmo:42001:1,2017-12-07T02:40:00Z,25.8880,-89.6580,25.6,1111122 
NDBC,ioos:station:wmo:42001:1,2017-12-07T03:40:00Z,25.8880,-89.6580,25.6,1111122 
NDBC,ioos:station:wmo:42001:1,2017-12-07T04:40:00Z,25.8880,-89.6580,25.5,1111122 
NDBC,ioos:station:wmo:42001:1,2017-12-07T05:40:00Z,25.8880,-89.6580,25.4,1111122 
NDBC,ioos:station:wmo:42001:1,2017-12-07T06:40:00Z,25.8880,-89.6580,25.3,1111122 
NDBC,ioos:station:wmo:42001:1,2017-12-07T07:40:00Z,25.8880,-89.6580,25.3,1111122 
NDBC,ioos:station:wmo:42001:1,2017-12-07T08:40:00Z,25.8880,-89.6580,25.3,1111122 
NDBC,ioos:station:wmo:42001:1,2017-12-07T09:40:00Z,25.8880,-89.6580,25.2,1111122 
NDBC,ioos:station:wmo:42001:1,2017-12-07T10:40:00Z,25.8880,-89.6580,25.2,1111122 
NDBC,ioos:station:wmo:42001:1,2017-12-07T11:40:00Z,25.8880,-89.6580,25.3,1111122 
NDBC,ioos:station:wmo:42001:1,2017-12-07T12:40:00Z,25.8880,-89.6580,25.2,1111122 
NDBC,ioos:station:wmo:42001:1,2017-12-07T13:40:00Z,25.8880,-89.6580,25.4,1111122 
NDBC,ioos:station:wmo:42001:1,2017-12-07T14:40:00Z,25.8880,-89.6580,25.6,1111122 
NDBC,ioos:station:wmo:42001:1,2017-12-07T15:40:00Z,25.8880,-89.6580,25.6,1111122 
NDBC,ioos:station:wmo:42001:1,2017-12-07T16:40:00Z,25.8880,-89.6580,24.5,1111122 
NDBC,ioos:station:wmo:42001:1,2017-12-07T17:40:00Z,25.8880,-89.6580,24.7,1111122 
NDBC,ioos:station:wmo:42001:1,2017-12-07T18:40:00Z,25.8880,-89.6580,25.3,1111122 
NDBC,ioos:station:wmo:42001:1,2017-12-07T19:40:00Z,25.8880,-89.6580,24.8,1111122 
NDBC,ioos:station:wmo:42001:1,2017-12-07T20:40:00Z,25.8880,-89.6580,24.8,1111122 
NDBC,ioos:station:wmo:42001:1,2017-12-07T22:40:00Z,25.8880,-89.6580,24.7,1111122 
NDBC,ioos:station:wmo:42001:1,2017-12-07T23:40:00Z,25.8880,-89.6580,22.5,1111122 
NDBC,ioos:station:wmo:42001:1,2017-12-08T00:40:00Z,25.8880,-89.6580,22.4,1111122 
NDBC,ioos:station:wmo:42001:1,2017-12-08T01:40:00Z,25.8880,-89.6580,22.3,1111122 
NDBC,ioos:station:wmo:42001:1,2017-12-08T02:40:00Z,25.8880,-89.6580,22.5,1111122 
NDBC,ioos:station:wmo:42001:1,2017-12-08T03:40:00Z,25.8880,-89.6580,22.8,1111122 
NDBC,ioos:station:wmo:42001:1,2017-12-08T04:40:00Z,25.8880,-89.6580,23.0,1111122 
NDBC,ioos:station:wmo:42001:1,2017-12-08T05:40:00Z,25.8880,-89.6580,23.6,1111122 
NDBC,ioos:station:wmo:42001:1,2017-12-08T06:40:00Z,25.8880,-89.6580,23.9,1111122 
NDBC,ioos:station:wmo:42001:1,2017-12-08T07:40:00Z,25.8880,-89.6580,23.8,1111122 
NDBC,ioos:station:wmo:42001:1,2017-12-08T08:40:00Z,25.8880,-89.6580,24.1,1111122 
NDBC,ioos:station:wmo:42001:1,2017-12-08T09:40:00Z,25.8880,-89.6580,24.2,1111122 
NDBC,ioos:station:wmo:42001:1,2017-12-08T10:40:00Z,25.8880,-89.6580,24.6,1111122 
NDBC,ioos:station:wmo:42001:1,2017-12-08T11:40:00Z,25.8880,-89.6580,25.5,1111122 
NDBC,ioos:station:wmo:42001:1,2017-12-08T12:40:00Z,25.8880,-89.6580,24.0,1111122 
NDBC,ioos:station:wmo:42001:1,2017-12-08T13:40:00Z,25.8880,-89.6580,23.7,1111122 
NDBC,ioos:station:wmo:42001:1,2017-12-08T14:40:00Z,25.8880,-89.6580,23.1,1111122 
NDBC,ioos:station:wmo:42001:1,2017-12-08T15:40:00Z,25.8880,-89.6580,21.1,1111122 
NDBC,ioos:station:wmo:42001:1,2017-12-08T15:50:00Z,25.8880,-89.6580,21.0,1111122 
NDBC,ioos:station:wmo:42001:1,2017-12-08T17:40:00Z,25.8880,-89.6580,19.2,1111122 
NDBC,ioos:station:wmo:42001:1,2017-12-08T18:40:00Z,25.8880,-89.6580,18.3,1111122 
NDBC,ioos:station:wmo:42001:1,2017-12-08T19:40:00Z,25.8880,-89.6580,18.4,1111122 
NDBC,ioos:station:wmo:42001:1,2017-12-08T20:40:00Z,25.8880,-89.6580,18.7,1111122 
NDBC,ioos:station:wmo:42001:1,2017-12-08T21:40:00Z,25.8880,-89.6580,18.5,1111122 
NDBC,ioos:station:wmo:42001:1,2017-12-08T22:40:00Z,25.8880,-89.6580,18.1,1111122 
NDBC,ioos:station:wmo:42001:1,2017-12-08T23:40:00Z,25.8880,-89.6580,17.7,1111122 
NDBC,ioos:station:wmo:42001:1,2017-12-09T00:40:00Z,25.8880,-89.6580,17.4,1111122 
NDBC,ioos:station:wmo:42001:1,2017-12-09T01:40:00Z,25.8880,-89.6580,17.7,1111122 
NDBC,ioos:station:wmo:42001:1,2017-12-09T02:40:00Z,25.8880,-89.6580,17.4,1111122 
NDBC,ioos:station:wmo:42001:1,2017-12-09T03:40:00Z,25.8880,-89.6580,17.5,1111122 
NDBC,ioos:station:wmo:42001:1,2017-12-09T04:40:00Z,25.8880,-89.6580,17.0,1111122 
NDBC,ioos:station:wmo:42001:1,2017-12-09T05:40:00Z,25.8880,-89.6580,17.7,1111122 
NDBC,ioos:station:wmo:42001:1,2017-12-09T06:40:00Z,25.8880,-89.6580,17.4,1111122 
NDBC,ioos:station:wmo:42001:1,2017-12-09T07:40:00Z,25.8880,-89.6580,17.5,1111122 
NDBC,ioos:station:wmo:42001:1,2017-12-09T08:40:00Z,25.8880,-89.6580,17.1,1111122 
NDBC,ioos:station:wmo:42001:1,2017-12-09T09:40:00Z,25.8880,-89.6580,16.2,1111122 
NDBC,ioos:station:wmo:42001:1,2017-12-09T10:40:00Z,25.8880,-89.6580,17.5,1111122 
NDBC,ioos:station:wmo:42001:1,2017-12-09T11:40:00Z,25.8880,-89.6580,17.7,1111122 
NDBC,ioos:station:wmo:42001:1,2017-12-09T12:40:00Z,25.8880,-89.6580,17.7,1111122 
NDBC,ioos:station:wmo:42001:1,2017-12-09T13:40:00Z,25.8880,-89.6580,17.1,1111122 
NDBC,ioos:station:wmo:42001:1,2017-12-09T14:40:00Z,25.8880,-89.6580,17.2,1111122 
NDBC,ioos:station:wmo:42001:1,2017-12-09T15:40:00Z,25.8880,-89.6580,17.1,1111122 
NDBC,ioos:station:wmo:42001:1,2017-12-09T16:40:00Z,25.8880,-89.6580,17.2,1111122 
NDBC,ioos:station:wmo:42001:1,2017-12-09T17:40:00Z,25.8880,-89.6580,17.0,1111122 
NDBC,ioos:station:wmo:42001:1,2017-12-09T18:40:00Z,25.8880,-89.6580,16.8,1111122 
NDBC,ioos:station:wmo:42001:1,2017-12-09T19:40:00Z,25.8880,-89.6580,17.0,1111122 
NDBC,ioos:station:wmo:42001:1,2017-12-09T20:40:00Z,25.8880,-89.6580,17.0,1111122 
NDBC,ioos:station:wmo:42001:1,2017-12-09T21:40:00Z,25.8880,-89.6580,17.0,1111122 
NDBC,ioos:station:wmo:42001:1,2017-12-09T22:40:00Z,25.8880,-89.6580,17.1,1111122 
NDBC,ioos:station:wmo:42001:1,2017-12-09T23:40:00Z,25.8880,-89.6580,17.3,1111122 
NDBC,ioos:station:wmo:42001:1,2017-12-10T00:40:00Z,25.8880,-89.6580,17.4,1111122 
NDBC,ioos:station:wmo:42001:1,2017-12-10T01:20:00Z,25.8880,-89.6580,17.8,1111122 
NDBC,ioos:station:wmo:42001:1,2017-12-10T02:40:00Z,25.8880,-89.6580,17.9,1111122 
NDBC,ioos:station:wmo:42001:1,2017-12-10T03:40:00Z,25.8880,-89.6580,17.9,1111122 
NDBC,ioos:station:wmo:42001:1,2017-12-10T04:40:00Z,25.8880,-89.6580,18.0,1111122 
NDBC,ioos:station:wmo:42001:1,2017-12-10T05:40:00Z,25.8880,-89.6580,18.1,1111122 
NDBC,ioos:station:wmo:42001:1,2017-12-10T06:30:00Z,25.8880,-89.6580,18.3,1111122 
NDBC,ioos:station:wmo:42001:1,2017-12-10T07:40:00Z,25.8880,-89.6580,18.6,1111122 
NDBC,ioos:station:wmo:42001:1,2017-12-10T08:40:00Z,25.8880,-89.6580,18.8,1111122 
NDBC,ioos:station:wmo:42001:1,2017-12-10T09:40:00Z,25.8880,-89.6580,19.2,1111122 
NDBC,ioos:station:wmo:42001:1,2017-12-10T10:40:00Z,25.8880,-89.6580,19.4,1111122 
NDBC,ioos:station:wmo:42001:1,2017-12-10T11:40:00Z,25.8880,-89.6580,19.4,1111122 
NDBC,ioos:station:wmo:42001:1,2017-12-10T12:40:00Z,25.8880,-89.6580,19.0,1111122 
NDBC,ioos:station:wmo:42001:1,2017-12-10T13:40:00Z,25.8880,-89.6580,18.9,1111122 
NDBC,ioos:station:wmo:42001:1,2017-12-10T14:40:00Z,25.8880,-89.6580,18.9,1111122 
NDBC,ioos:station:wmo:42001:1,2017-12-10T15:40:00Z,25.8880,-89.6580,18.9,1111122 
NDBC,ioos:station:wmo:42001:1,2017-12-10T16:40:00Z,25.8880,-89.6580,19.0,1111122 
NDBC,ioos:station:wmo:42001:1,2017-12-10T17:40:00Z,25.8880,-89.6580,19.2,1111122 
NDBC,ioos:station:wmo:42001:1,2017-12-10T18:40:00Z,25.8880,-89.6580,19.1,1111122 
NDBC,ioos:station:wmo:42001:1,2017-12-10T19:40:00Z,25.8880,-89.6580,19.3,1111122 
NDBC,ioos:station:wmo:42001:1,2017-12-10T20:40:00Z,25.8880,-89.6580,19.5,1111122 
NDBC,ioos:station:wmo:42001:1,2017-12-10T21:40:00Z,25.8880,-89.6580,19.5,1111122 
NDBC,ioos:station:wmo:42001:1,2017-12-10T22:40:00Z,25.8880,-89.6580,19.7,1111122 
NDBC,ioos:station:wmo:42001:1,2017-12-10T23:40:00Z,25.8880,-89.6580,19.6,1111122 
NDBC,ioos:station:wmo:42001:1,2017-12-11T00:40:00Z,25.8880,-89.6580,19.6,1111122 
NDBC,ioos:station:wmo:42001:1,2017-12-11T01:40:00Z,25.8880,-89.6580,19.4,1111122 
NDBC,ioos:station:wmo:42001:1,2017-12-11T02:40:00Z,25.8880,-89.6580,19.4,1111122 
NDBC,ioos:station:wmo:42001:1,2017-12-11T03:40:00Z,25.8880,-89.6580,19.4,1111122 
NDBC,ioos:station:wmo:42001:1,2017-12-11T04:40:00Z,25.8880,-89.6580,19.4,1111122 
NDBC,ioos:station:wmo:42001:1,2017-12-11T05:40:00Z,25.8880,-89.6580,19.4,1111122 
NDBC,ioos:station:wmo:42001:1,2017-12-11T06:40:00Z,25.8880,-89.6580,19.5,1111122 
NDBC,ioos:station:wmo:42001:1,2017-12-11T07:40:00Z,25.8880,-89.6580,19.4,1111122 
NDBC,ioos:station:wmo:42001:1,2017-12-11T08:40:00Z,25.8880,-89.6580,19.5,1111122 
NDBC,ioos:station:wmo:42001:1,2017-12-11T09:40:00Z,25.8880,-89.6580,19.6,1111122 
NDBC,ioos:station:wmo:42001:1,2017-12-11T10:40:00Z,25.8880,-89.6580,19.6,1111122 
NDBC,ioos:station:wmo:42001:1,2017-12-11T11:40:00Z,25.8880,-89.6580,19.7,1111122 
NDBC,ioos:station:wmo:42001:1,2017-12-11T12:40:00Z,25.8880,-89.6580,19.7,1111122 
NDBC,ioos:station:wmo:42001:1,2017-12-11T13:40:00Z,25.8880,-89.6580,19.9,1111122 
NDBC,ioos:station:wmo:42001:1,2017-12-11T14:40:00Z,25.8880,-89.6580,20.2,1111122 
NDBC,ioos:station:wmo:42001:1,2017-12-11T15:40:00Z,25.8880,-89.6580,20.0,1111122 
NDBC,ioos:station:wmo:42001:1,2017-12-11T16:40:00Z,25.8880,-89.6580,20.1,1111122 
NDBC,ioos:station:wmo:42001:1,2017-12-11T17:40:00Z,25.8880,-89.6580,20.2,1111122 
NDBC,ioos:station:wmo:42001:1,2017-12-11T18:40:00Z,25.8880,-89.6580,20.0,1111122 
NDBC,ioos:station:wmo:42001:1,2017-12-11T19:50:00Z,25.8880,-89.6580,20.3,1111122 
NDBC,ioos:station:wmo:42001:1,2017-12-11T20:40:00Z,25.8880,-89.6580,20.3,1111122 
NDBC,ioos:station:wmo:42001:1,2017-12-11T21:40:00Z,25.8880,-89.6580,20.4,1111122 
NDBC,ioos:station:wmo:42001:1,2017-12-11T22:40:00Z,25.8880,-89.6580,20.3,1111122 
NDBC,ioos:station:wmo:42001:1,2017-12-11T23:40:00Z,25.8880,-89.6580,20.3,1111122 
NDBC,ioos:station:wmo:42001:1,2017-12-12T00:40:00Z,25.8880,-89.6580,20.4,1111122 
NDBC,ioos:station:wmo:42001:1,2017-12-12T01:40:00Z,25.8880,-89.6580,20.5,1111122 
NDBC,ioos:station:wmo:42001:1,2017-12-12T02:40:00Z,25.8880,-89.6580,20.6,1111122 
NDBC,ioos:station:wmo:42001:1,2017-12-12T03:40:00Z,25.8880,-89.6580,20.7,1111122 
NDBC,ioos:station:wmo:42001:1,2017-12-12T04:40:00Z,25.8880,-89.6580,20.8,1111122 
NDBC,ioos:station:wmo:42001:1,2017-12-12T05:40:00Z,25.8880,-89.6580,21.0,1111122 
NDBC,ioos:station:wmo:42001:1,2017-12-12T06:40:00Z,25.8880,-89.6580,21.0,1111122 
NDBC,ioos:station:wmo:42001:1,2017-12-12T07:40:00Z,25.8880,-89.6580,21.0,1111122 
NDBC,ioos:station:wmo:42001:1,2017-12-12T08:40:00Z,25.8880,-89.6580,21.1,1111122 
NDBC,ioos:station:wmo:42001:1,2017-12-12T09:40:00Z,25.8880,-89.6580,21.3,1111122 
NDBC,ioos:station:wmo:42001:1,2017-12-12T10:40:00Z,25.8880,-89.6580,21.5,1111122 
NDBC,ioos:station:wmo:42001:1,2017-12-12T11:40:00Z,25.8880,-89.6580,21.7,1111122 
NDBC,ioos:station:wmo:42001:1,2017-12-12T12:40:00Z,25.8880,-89.6580,21.6,1111122 
NDBC,ioos:station:wmo:42001:1,2017-12-12T13:40:00Z,25.8880,-89.6580,21.7,1111122 
NDBC,ioos:station:wmo:42001:1,2017-12-12T14:40:00Z,25.8880,-89.6580,21.8,1111122 
NDBC,ioos:station:wmo:42001:1,2017-12-12T15:40:00Z,25.8880,-89.6580,22.1,1111122 
NDBC,ioos:station:wmo:42001:1,2017-12-12T16:40:00Z,25.8880,-89.6580,22.4,1111122 
NDBC,ioos:station:wmo:42001:1,2017-12-12T17:40:00Z,25.8880,-89.6580,22.7,1111122 
NDBC,ioos:station:wmo:42001:1,2017-12-12T18:40:00Z,25.8880,-89.6580,22.7,1111122 
NDBC,ioos:station:wmo:42001:1,2017-12-12T19:50:00Z,25.8880,-89.6580,23.0,1111122 
NDBC,ioos:station:wmo:42001:1,2017-12-12T20:40:00Z,25.8880,-89.6580,23.0,1111122 
NDBC,ioos:station:wmo:42001:1,2017-12-12T21:40:00Z,25.8880,-89.6580,23.0,1111122 
NDBC,ioos:station:wmo:42001:1,2017-12-12T22:40:00Z,25.8880,-89.6580,22.2,1111122 
NDBC,ioos:station:wmo:42001:1,2017-12-13T09:40:00Z,25.8880,-89.6580,19.6,1111122 
NDBC,ioos:station:wmo:42001:1,2017-12-13T10:40:00Z,25.8880,-89.6580,19.6,1111122 
NDBC,ioos:station:wmo:42001:1,2017-12-13T11:40:00Z,25.8880,-89.6580,19.6,1111122 
NDBC,ioos:station:wmo:42001:1,2017-12-13T12:40:00Z,25.8880,-89.6580,19.6,1111122 
NDBC,ioos:station:wmo:42001:1,2017-12-13T13:40:00Z,25.8880,-89.6580,19.9,1111122 
NDBC,ioos:station:wmo:42001:1,2017-12-13T14:40:00Z,25.8880,-89.6580,20.2,1111122 